Location: *
(42.5628°N, 2.3633°E)
Time: 20:26:48
(UTC+00:00)

SPOT 3 Rocket - Pass Details

Date: 30 March 2020
Orbit: 779 x 795 km, 98.8° (Epoch: 31 May)

Event Time Altitude Azimuth Distance (km) Brightness Sun altitude
Exits shadow 19:29:51 15° 143° (SE) 2,002 5.2 -14.3°
Maximum altitude 19:33:57 52° 71° (ENE) 980 3.7 -15.0°
Drops below altitude 10° 19:39:01 10° 356° (N) 2,369 6.4 -15.9°
Sets 19:41:23 0° 352° (N) 3,301 7.2 -16.3°
